• In Hungary
  • List of Countries
  • For 7 days
  • Water Temperature
  • Satellite Maps
  • Weather Map
  • News
  • Weather Widgets
  • user-avatar
    Login

    Hourly Weather Zavyika

    Today, 18 January, Thursday

    Time Temperature Precipitation Wind Pressure Humidity
    00:00 -7°C° 0 mm 2 mps 668 mmHg 100%
    01:00 -7°C° 0 mm 2 mps 669 mmHg 100%
    02:00 -3°C° 0 mm 0 mps 671 mmHg 94%
    03:00 -7°C° 0.1 mm 3 mps 671 mmHg 100%
    04:00 -7°C° 0.1 mm 3 mps 671 mmHg 100%
    05:00 -8°C° 0.2 mm 4 mps 672 mmHg 100%
    06:00 -8°C° 0.2 mm 4 mps 672 mmHg 100%
    07:00 -8°C° 0.2 mm 4 mps 673 mmHg 100%
    08:00 -9°C° 0.1 mm 4 mps 673 mmHg 100%
    09:00 -8°C° 0.1 mm 3 mps 674 mmHg 100%
    10:00 -8°C° 0 mm 3 mps 674 mmHg 100%
    11:00 -7°C° 0 mm 3 mps 675 mmHg 100%
    12:00 -6°C° 0 mm 2 mps 675 mmHg 100%
    13:00 -5°C° 0 mm 2 mps 676 mmHg 100%
    14:00 -5°C° 0 mm 2 mps 676 mmHg 100%
    15:00 -5°C° 0 mm 2 mps 676 mmHg 100%
    16:00 -5°C° 0 mm 2 mps 676 mmHg 100%
    17:00 -8°C° 0 mm 3 mps 675 mmHg 100%
    18:00 -10°C° 0 mm 4 mps 675 mmHg 100%
    19:00 -11°C° 0 mm 6 mps 675 mmHg 100%
    20:00 -9°C° 0.1 mm 7 mps 675 mmHg 100%
    21:00 -9°C° 0.1 mm 7 mps 674 mmHg 100%
    22:00 -10°C° 0.5 mm 8 mps 673 mmHg 100%
    23:00 -10°C° 0.8 mm 9 mps 673 mmHg 100%

    Tomorrow, 19 January, Friday

    Time Temperature Precipitation Wind Pressure Humidity
    00:00 -9°C° 0.5 mm 9 mps 672 mmHg 100%
    01:00 -9°C° 1 mm 9 mps 671 mmHg 100%
    02:00 -8°C° 1.2 mm 8 mps 671 mmHg 100%
    03:00 -9°C° 1.2 mm 7 mps 671 mmHg 100%
    04:00 -8°C° 1 mm 7 mps 671 mmHg 100%
    05:00 -8°C° 0.6 mm 7 mps 671 mmHg 100%
    06:00 -8°C° 0.2 mm 7 mps 671 mmHg 100%
    07:00 -7°C° 0.1 mm 7 mps 671 mmHg 100%
    08:00 -7°C° 0.1 mm 8 mps 672 mmHg 100%
    09:00 -7°C° 0.2 mm 8 mps 672 mmHg 100%
    10:00 -6°C° 0.2 mm 8 mps 673 mmHg 100%
    11:00 -7°C° 0.1 mm 7 mps 674 mmHg 100%
    12:00 -6°C° 0.1 mm 7 mps 674 mmHg 100%
    13:00 -5°C° 0 mm 6 mps 675 mmHg 100%
    14:00 -5°C° 0 mm 5 mps 675 mmHg 100%
    15:00 -5°C° 0.1 mm 5 mps 676 mmHg 100%
    16:00 -4°C° 0.1 mm 4 mps 676 mmHg 100%
    17:00 -5°C° 0.2 mm 4 mps 677 mmHg 100%
    18:00 -5°C° 0.1 mm 3 mps 677 mmHg 100%
    19:00 -5°C° 0 mm 4 mps 677 mmHg 100%
    20:00 -5°C° 0 mm 3 mps 677 mmHg 100%
    21:00 -6°C° 0 mm 3 mps 678 mmHg 100%
    22:00 -6°C° 0 mm 3 mps 678 mmHg 100%
    23:00 -6°C° 0 mm 3 mps 678 mmHg 100%

    Day after tomorrow, 20 January, Saturday

    Time Temperature Precipitation Wind Pressure Humidity
    00:00 -6°C° 0 mm 3 mps 678 mmHg 100%
    01:00 -6°C° 0 mm 3 mps 678 mmHg 100%
    02:00 -5°C° 0 mm 2 mps 679 mmHg 100%
    03:00 -5°C° 0 mm 2 mps 679 mmHg 100%
    04:00 -6°C° 0 mm 2 mps 678 mmHg 100%
    05:00 -6°C° 0 mm 2 mps 678 mmHg 100%
    06:00 -6°C° 0 mm 2 mps 678 mmHg 100%
    07:00 -7°C° 0 mm 2 mps 679 mmHg 100%
    08:00 -8°C° 0 mm 3 mps 679 mmHg 100%
    09:00 -8°C° 0 mm 3 mps 679 mmHg 100%
    10:00 -6°C° 0 mm 2 mps 679 mmHg 100%
    11:00 -7°C° 0 mm 3 mps 679 mmHg 100%
    12:00 -6°C° 0 mm 3 mps 679 mmHg 100%
    13:00 -5°C° 0 mm 4 mps 679 mmHg 100%
    14:00 -5°C° 0 mm 4 mps 679 mmHg 100%
    15:00 -6°C° 0 mm 5 mps 678 mmHg 100%
    16:00 -7°C° 0.1 mm 4 mps 678 mmHg 100%
    17:00 -8°C° 0 mm 4 mps 678 mmHg 100%
    18:00 -8°C° 0 mm 4 mps 678 mmHg 100%
    19:00 -9°C° 0.1 mm 4 mps 677 mmHg 100%
    20:00 -9°C° 0.1 mm 4 mps 677 mmHg 100%
    21:00 -9°C° 0 mm 4 mps 677 mmHg 100%
    22:00 -8°C° 0 mm 3 mps 677 mmHg 100%
    23:00 -9°C° 0 mm 4 mps 677 mmHg 100%

    21 January, Sunday

    Time Temperature Precipitation Wind Pressure Humidity
    00:00 -10°C° 0 mm 4 mps 677 mmHg 100%
    01:00 -10°C° 0 mm 4 mps 676 mmHg 100%
    02:00 -10°C° 0 mm 4 mps 676 mmHg 100%
    03:00 -9°C° 0 mm 4 mps 676 mmHg 100%
    04:00 -8°C° 0 mm 3 mps 676 mmHg 100%
    05:00 -7°C° 0 mm 2 mps 676 mmHg 100%
    06:00 -7°C° 0 mm 2 mps 676 mmHg 100%
    07:00 -7°C° 0 mm 2 mps 677 mmHg 100%
    08:00 -7°C° 0.4 mm 2 mps 677 mmHg 100%
    09:00 -4°C° 0 mm 1 mps 677 mmHg 100%
    10:00 -4°C° 0 mm 1 mps 678 mmHg 99%
    11:00 -3°C° 0.1 mm 1 mps 678 mmHg 100%
    12:00 -4°C° 0.8 mm 2 mps 679 mmHg 100%
    13:00 -5°C° 0.8 mm 3 mps 679 mmHg 100%
    14:00 -5°C° 0.8 mm 3 mps 679 mmHg 100%
    15:00 -7°C° 0.6 mm 4 mps 679 mmHg 100%
    16:00 -7°C° 0.6 mm 4 mps 680 mmHg 100%
    17:00 -8°C° 0.4 mm 4 mps 680 mmHg 100%
    18:00 -8°C° 0.2 mm 4 mps 680 mmHg 100%
    19:00 -8°C° 0.1 mm 4 mps 680 mmHg 100%
    20:00 -9°C° 0 mm 4 mps 680 mmHg 100%
    21:00 -10°C° 0 mm 4 mps 680 mmHg 100%
    22:00 -10°C° 0 mm 4 mps 680 mmHg 100%
    23:00 -11°C° 0 mm 4 mps 681 mmHg 100%

    22 January, Monday

    Time Temperature Precipitation Wind Pressure Humidity
    00:00 -12°C° 0 mm 4 mps 680 mmHg 100%
    01:00 -14°C° 0 mm 4 mps 680 mmHg 100%
    02:00 -14°C° 0 mm 4 mps 680 mmHg 100%

    23 January, Tuesday

    Time Temperature Precipitation Wind Pressure Humidity
    Show more